(207446) = 2006 EC63 = 2007 VH36

Discovered at Kitt Peak on 2006-03-05 by Spacewatch.

Orbit

Orbit type: Main Belt

Note: WebGL enabled browser required.

epoch2024-03-31.0
epoch JD2460400.5
perihelion date2024-03-26.01607
perihelion JD2460395.51608
argument of perihelion (°)1.63731
ascending node (°)260.57526
inclination (°)2.06984
eccentricity0.1921723
perihelion distance (AU)1.8595848
Tisserand w.r.t. Jupiter3.6
ΔV w.r.t. Earth (km/sec)8.5
semimajor axis (AU)2.3019572
mean anomaly (°)1.40647
mean daily motion (°/day)0.28220080
aphelion distance (AU)2.744
period (years)3.49
P-vector [x]-0.13551663
P-vector [y]-0.90942836
P-vector [z]-0.39316066
Q-vector [x]0.99013420
Q-vector [y]-0.13858011
Q-vector [z]-0.02073189
absolute magnitude17.35
phase slope0.15
uncertainty0
referenceE2024-GD4
observations used348
oppositions15
arc length (days)7474
first opposition used2003
last opposition used2024
residual rms (arc-secs)0.81
perturbers coarse indicatorM-v
perturbers precise indicator003Ek
first observation date used2003-10-24.0
last observation date used2024-04-09.0
computer nameMPCLINUX
JD of orbit computation2456966.753155
perihelion JD uncertainty (days)5.5836E-05
argument of perihelion uncertainty (°)1.6697E-04
ascending node uncertainty (°)1.6632E-04
inclination uncertainty (°)3.9512E-06
eccentricity uncertainty 3.6497E-08
perihelion distance uncertainty (AU)8.5511E-08
Minimum Orbit Intersection Distances (in AU)
for orbit epoch: 2460400.5, reference: E2024-GD4
Mercury1.39445
Venus1.13313
Earth0.84387
Mars0.35466
Jupiter2.32034
Saturn6.30068
Uranus16.0079
Neptune27.164

Observations

352 total observations over interval: 2003 10 24.07471 – 2023 01 14.419858
These data are available for download (format description).

Date (UT) J2000 RA J2000 Dec Magn Location Ref
2003 10 24.07471 20 48 14.70 -15 14 47.0 22.0 V 291 – LPL/Spacewatch II MPS 229016
2003 10 24.10166 20 48 16.60 -15 14 39.6 21.7 V 291 – LPL/Spacewatch II MPS 229016
2003 10 24.12557 20 48 18.29 -15 14 34.4 21.5 V 291 – LPL/Spacewatch II MPS 229016
2006 03 05.38606 12 39 37.43 -08 08 48.5 20.5 V 691 – Steward Observatory, Kitt Peak-Spacewatch MPS 166445
2006 03 05.40339 12 39 36.78 -08 08 45.7 20.7 V 691 – Steward Observatory, Kitt Peak-Spacewatch MPS 166445
2006 03 05.42074 12 39 36.13 -08 08 43.3 21.2 V 691 – Steward Observatory, Kitt Peak-Spacewatch MPS 166445
2006 03 09.40147 12 37 05.33 -07 56 38.7   691 – Steward Observatory, Kitt Peak-Spacewatch MPS 166445
2006 03 09.41883 12 37 04.57 -07 56 34.8   691 – Steward Observatory, Kitt Peak-Spacewatch MPS 166445
2006 03 09.43617 12 37 03.79 -07 56 31.0   691 – Steward Observatory, Kitt Peak-Spacewatch MPS 166445
2006 03 09.45030 12 37 03.20 -07 56 28.5   691 – Steward Observatory, Kitt Peak-Spacewatch MPS 166445
2006 03 09.46759 12 37 02.45 -07 56 24.7   691 – Steward Observatory, Kitt Peak-Spacewatch MPS 166445
2006 03 09.48492 12 37 01.69 -07 56 21.2   691 – Steward Observatory, Kitt Peak-Spacewatch MPS 166445
2006 03 26.33518 12 22 42.69 -06 32 46.5 19.2 R 699 – Lowell Observatory-LONEOS MPS 229016
2006 03 26.35336 12 22 41.62 -06 32 38.4   699 – Lowell Observatory-LONEOS MPS 229016
2006 03 26.37155 12 22 40.50 -06 32 31.7   699 – Lowell Observatory-LONEOS MPS 229016
2006 03 26.38973 12 22 39.45 -06 32 24.1   699 – Lowell Observatory-LONEOS MPS 229016
2006 04 21.14060 12 00 27.91 -03 48 06.0   691 – Steward Observatory, Kitt Peak-Spacewatch MPS 229016
2006 04 21.16430 12 00 26.99 -03 47 58.3   691 – Steward Observatory, Kitt Peak-Spacewatch MPS 229016
2006 04 21.18799 12 00 26.03 -03 47 50.3   691 – Steward Observatory, Kitt Peak-Spacewatch MPS 229016
2007 10 08.20449 01 56 26.88 +14 54 24.7 21.2 V 691 – Steward Observatory, Kitt Peak-Spacewatch MPS 229016
2007 10 08.22210 01 56 25.84 +14 54 19.3 20.7 V 691 – Steward Observatory, Kitt Peak-Spacewatch MPS 229017
2007 10 08.23735 01 56 24.95 +14 54 14.7 21.0 V 691 – Steward Observatory, Kitt Peak-Spacewatch MPS 229017
2007 11 02.21807 01 31 47.28 +12 21 53.1 20.2 V G96 – Mt. Lemmon Survey MPS 225208
2007 11 02.22573 01 31 46.84 +12 21 50.7 20.1 V G96 – Mt. Lemmon Survey MPS 225208
2007 11 02.23347 01 31 46.41 +12 21 47.8 19.9 V G96 – Mt. Lemmon Survey MPS 225208
2007 11 02.24113 01 31 45.98 +12 21 45.3 19.8 V G96 – Mt. Lemmon Survey MPS 225208
2007 11 03.29665 01 30 49.66 +12 15 15.5   291 – LPL/Spacewatch II MPS 225208
2007 11 03.30383 01 30 49.27 +12 15 13.0   291 – LPL/Spacewatch II MPS 225208
2007 11 03.31096 01 30 48.88 +12 15 10.6   291 – LPL/Spacewatch II MPS 225208
2008 12 22.34407 08 45 59.54 +16 10 54.4 21.9 V G96 – Mt. Lemmon Survey MPS 269278
2008 12 22.34854 08 45 59.40 +16 10 55.5 21.8 V G96 – Mt. Lemmon Survey MPS 269278
2008 12 22.35303 08 45 59.29 +16 10 55.6 20.9 V G96 – Mt. Lemmon Survey MPS 269278
2008 12 22.35743 08 45 59.07 +16 10 55.3 21.7 V G96 – Mt. Lemmon Survey MPS 269278
2008 12 30.40104 08 40 51.37 +16 22 02.9 20.6 V 691 – Steward Observatory, Kitt Peak-Spacewatch MPS 270170
2008 12 30.41916 08 40 50.57 +16 22 04.8 21.0 V 691 – Steward Observatory, Kitt Peak-Spacewatch MPS 270170
2008 12 30.43783 08 40 49.68 +16 22 06.8 20.9 V 691 – Steward Observatory, Kitt Peak-Spacewatch MPS 270170
2009 01 15.25489 08 26 15.87 +17 00 18.3 20.6 V 691 – Steward Observatory, Kitt Peak-Spacewatch MPS 272619
2009 01 15.25735 08 26 15.71 +17 00 18.6 20.8 V 691 – Steward Observatory, Kitt Peak-Spacewatch MPS 272619
2009 01 15.27326 08 26 14.67 +17 00 21.9 20.9 V 691 – Steward Observatory, Kitt Peak-Spacewatch MPS 272619
2009 01 15.27597 08 26 14.49 +17 00 22.2 20.7 V 691 – Steward Observatory, Kitt Peak-Spacewatch MPS 272619
2009 01 15.29162 08 26 13.49 +17 00 24.8 20.4 V 691 – Steward Observatory, Kitt Peak-Spacewatch MPS 272619
2009 01 15.29408 08 26 13.32 +17 00 25.8 20.4 V 691 – Steward Observatory, Kitt Peak-Spacewatch MPS 272619
2009 01 20.17867 08 20 55.90 +17 14 54.3 20.6 V 691 – Steward Observatory, Kitt Peak-Spacewatch MPS 272619
2009 01 20.20051 08 20 54.42 +17 14 58.5 20.5 V 691 – Steward Observatory, Kitt Peak-Spacewatch MPS 272619
2009 01 20.21863 08 20 53.22 +17 15 01.7 20.5 V 691 – Steward Observatory, Kitt Peak-Spacewatch MPS 272619
2009 02 20.30888 07 50 15.87 +18 38 53.0   291 – LPL/Spacewatch II MPS 277502
2009 02 20.31809 07 50 15.47 +18 38 53.7   291 – LPL/Spacewatch II MPS 277502
2009 02 20.32872 07 50 15.04 +18 38 55.1   291 – LPL/Spacewatch II MPS 277502
2010 05 20.44123 20 54 52.48 -16 21 16.9 20.1 V G96 – Mt. Lemmon Survey MPS 328503
2010 05 20.44529 20 54 52.74 -16 21 14.9 20.6 V G96 – Mt. Lemmon Survey MPS 328503
2010 05 20.44940 20 54 52.99 -16 21 13.3 20.3 V G96 – Mt. Lemmon Survey MPS 328503
2010 05 20.45353 20 54 53.24 -16 21 11.9 20.6 V G96 – Mt. Lemmon Survey MPS 328503
2010 07 05.34325 21 10 57.06 -13 38 45.7 19.5 V 691 – Steward Observatory, Kitt Peak-Spacewatch MPS 338802
2010 07 05.36106 21 10 56.47 -13 38 45.7 20.5 V 691 – Steward Observatory, Kitt Peak-Spacewatch MPS 338803
2010 07 05.37885 21 10 55.95 -13 38 45.8 19.6 V 691 – Steward Observatory, Kitt Peak-Spacewatch MPS 338803
2010 07 14.00475 21 05 49.26 -13 43 59.9 19.0 V J75 – OAM Observatory, La Sagra MPS 339732
2010 07 14.01932 21 05 48.57 -13 44 01.2 19.2 V J75 – OAM Observatory, La Sagra MPS 339732
2010 07 14.03381 21 05 47.86 -13 44 02.3 19.7 V J75 – OAM Observatory, La Sagra MPS 339732
2010 07 15.94123 21 04 23.08 -13 46 38.9 19.1 V J75 – OAM Observatory, La Sagra MPS 339732
2010 07 15.95444 21 04 22.42 -13 46 41.0 18.9 V J75 – OAM Observatory, La Sagra MPS 339732
2010 07 15.96824 21 04 21.79 -13 46 41.2 19.4 V J75 – OAM Observatory, La Sagra MPS 339732
2010 07 19.95647 21 01 07.92 -13 53 38.5 18.7 V J75 – OAM Observatory, La Sagra MPS 340610
2010 07 19.97082 21 01 07.11 -13 53 40.5 18.9 V J75 – OAM Observatory, La Sagra MPS 340610
2010 07 19.98515 21 01 06.25 -13 53 42.5 19.6 V J75 – OAM Observatory, La Sagra MPS 340610
2010 08 02.28166 20 48 46.12 -14 27 07.0 19.3   704 – Lincoln Laboratory ETS, New Mexico MPS 343562
2010 08 02.29339 20 48 45.34 -14 27 09.5 19.3   704 – Lincoln Laboratory ETS, New Mexico MPS 343562
2010 08 02.30509 20 48 44.63 -14 27 12.1 19.3   704 – Lincoln Laboratory ETS, New Mexico MPS 343562
2010 08 02.31679 20 48 43.99 -14 27 14.6 19.4   704 – Lincoln Laboratory ETS, New Mexico MPS 343562
2010 08 02.32850 20 48 43.35 -14 27 16.4 19.2   704 – Lincoln Laboratory ETS, New Mexico MPS 343562
2010 08 04.28289 20 46 51.39 -14 32 57.0 19.4   704 – Lincoln Laboratory ETS, New Mexico MPS 343562
2010 08 04.29483 20 46 50.63 -14 32 58.7 19.4   704 – Lincoln Laboratory ETS, New Mexico MPS 343562
2010 08 04.30703 20 46 50.00 -14 33 01.6 19.2   704 – Lincoln Laboratory ETS, New Mexico MPS 343562
2010 08 04.33137 20 46 48.43 -14 33 04.8 19.2   704 – Lincoln Laboratory ETS, New Mexico MPS 343562
2010 08 06.93297 20 44 21.85 -14 40 48.1 18.6 V J75 – OAM Observatory, La Sagra MPS 344712
2010 08 06.94589 20 44 21.10 -14 40 50.4 18.8 V J75 – OAM Observatory, La Sagra MPS 344712
2010 08 06.95878 20 44 20.29 -14 40 53.0 19.0 V J75 – OAM Observatory, La Sagra MPS 344712
2011 12 06.36630 05 08 54.881 +23 09 10.73 20.7 i F51 – Pan-STARRS 1, Haleakala MPS 404172
2011 12 06.38109 05 08 53.847 +23 09 08.83 20.7 i F51 – Pan-STARRS 1, Haleakala MPS 404172
2013 03 12.25863 12 42 58.64 -08 35 14.1 20.0 V 691 – Steward Observatory, Kitt Peak-Spacewatch MPS 461434
2013 03 12.27628 12 42 57.85 -08 35 10.2 20.0 V 691 – Steward Observatory, Kitt Peak-Spacewatch MPS 461434
2013 03 12.29391 12 42 57.05 -08 35 06.2 20.0 V 691 – Steward Observatory, Kitt Peak-Spacewatch MPS 461434
2013 03 13.40259 12 42 08.53 -08 30 53.7 20.3 V 703 – Catalina Sky Survey MPS 460308
2013 03 13.40980 12 42 08.20 -08 30 52.3 20.1 V 703 – Catalina Sky Survey MPS 460308
2013 03 13.41699 12 42 07.88 -08 30 50.6 20.1 V 703 – Catalina Sky Survey MPS 460308
2013 03 13.42420 12 42 07.52 -08 30 49.5 19.8 V 703 – Catalina Sky Survey MPS 460308
2013 03 13.43137 12 42 07.23 -08 30 46.1 20.6 V 703 – Catalina Sky Survey MPS 460308
